Torna al catalogo

SIRTF

AttivoScienzaVLEO
NORAD 27871·PAYLOAD·🇺🇸 United States

Lanciato Aug 25, 2003 da Cape Canaveral Space Force Station

Loading…

Prossimi Passaggi (prossime 24 ore)

TLE

ObsoletoSource: Space-Track

Epoca: Aug 25, 2003, 05:42 UTC

1 27871U 03038A   03237.23812767 +.00001051 -33233-5 +00000-0 0  9997
2 27871 031.5001 218.6248 0000281 291.7986 199.5315 16.41232779000006

Traccia SIRTF in tempo reale con AllMySat

Download on the App Store